[[[{"header":{"parameterUnit":"kt","parameterCategory":2,"dx":1,"dy":1,"la1":30.253999710083008,"la2":30.299108505249023,"lo1":-89.0895004272461,"lo2":-89.04439544677734,"nx":28,"ny":28,"refTime":"2022-09-26T21:00:00:Z","depth":0,"parameterNumber":1,"parameterNumberName":"U-component_of_WINDS"},"data":[-5.736,-5.7513,-5.7485,-5.7646,-5.7648,-5.7753,-5.7781,-5.7814,-5.7833,-5.7954,-5.8018,-5.8004,-5.8011,-5.808,-5.8147,-5.8139,-5.8171,-5.8245,-5.8223,-5.7916,-5.7872,-5.7829,-5.7792,-5.8252,-5.8253,-5.8546,-5.8549,-5.8551,-5.7134,-5.7138,-5.7216,-5.7271,-5.7337,-5.7247,-5.7284,-5.7345,-5.7441,-5.7465,-5.7527,-5.7631,-5.7709,-5.769,-5.776,-5.783,-5.7792,-5.7851,-5.7846,-5.7848,-5.7519,-5.7479,-5.788,-5.788,-5.788,-5.788,-5.788,-5.788,-5.6717,-5.6811,-5.6828,-5.6911,-5.6931,-5.6968,-5.7052,-5.7033,-5.7108,-5.7178,-5.7129,-5.7237,-5.7255,-5.7325,-5.7341,-5.7424,-5.7353,-5.7409,-5.7423,-5.7439,-5.746,-5.7041,-5.7434,-5.7433,-5.7431,-5.743,-5.743,0,-5.6403,-5.6373,-5.6446,-5.651,-5.6569,-5.6616,-5.6654,-5.6704,-5.663,-5.6695,-5.6786,-5.6833,-5.6927,-5.7009,-5.7068,-5.7073,-5.6987,-5.6975,-5.7013,-5.704,-5.7056,-5.7051,-5.6515,-5.6965,-5.696,-5.6957,-5.6955,-5.6954,-5.5981,-5.6094,-5.6098,-5.6152,-5.6166,-5.6255,-5.6302,-5.6228,-5.6281,-5.6316,-5.6402,-5.6483,-5.6544,-5.6695,-5.6671,-5.6741,-5.67,-5.6875,-5.6711,-5.6731,-5.6705,-5.67,-5.671,-5.691,-5.6915,-5.692,-5.6924,0,-5.5747,-5.5699,-5.5864,-5.5856,-5.5858,-5.5979,-5.5972,-5.6061,-5.6033,-5.6152,-5.6176,-5.6132,-5.6222,-5.617,-5.6263,-5.6233,-5.643,-5.6388,-5.6423,-5.6412,-5.6564,-5.6551,-5.7065,-5.7128,-5.6649,-5.6653,-5.6657,0,-5.5369,-5.5519,-5.544,-5.5538,-5.5701,-5.5623,-5.5787,-5.5778,-5.5793,-5.5887,-5.578,-5.587,-5.5788,-5.587,-5.5826,-5.5978,-5.5995,-5.5981,-5.5968,-5.5993,-5.5995,-5.6021,-5.6,-5.5933,-5.593,-5.5928,-5.5926,0,-5.5008,-5.5141,-5.53,-5.5322,-5.533,-5.5406,-5.5413,-5.5429,-5.5476,-5.5528,-5.5558,-5.5624,-5.5662,-5.5714,-5.5658,-5.5548,-5.5841,-5.5679,-5.5828,-5.583,-5.5898,-5.5895,-5.636,-5.5922,-5.5922,-5.5921,-5.592,0,-5.4696,-5.4752,-5.4989,-5.4992,-5.503,-5.5135,-5.5195,-5.5272,-5.5297,-5.5275,-5.5316,-5.5239,-5.5367,-5.521,-5.5385,-5.5258,-5.53,-5.5298,-5.5308,-5.5319,-5.5145,-5.5417,-5.5863,-5.5909,-5.5325,-5.532,-5.5315,0,-5.4297,-5.4523,-5.4457,-5.4684,-5.4782,-5.4656,-5.477,-5.4795,-5.4776,-5.4855,-5.4833,-5.4925,-5.4796,-5.4817,-5.491,-5.4893,-5.5057,-5.4868,-5.4984,-5.499,-5.4984,-5.5393,-5.5474,-5.5771,-5.5251,-5.5258,-5.5263,0,-5.3981,-5.399,-5.4035,-5.4058,-5.4079,-5.416,-5.4291,-5.4364,-5.4421,-5.4461,-5.4569,-5.4695,-5.4603,-5.4641,-5.4586,-5.4686,-5.4943,-5.4574,-5.4574,-5.4644,-5.5214,-5.529,-5.534,-5.4884,-5.4892,-5.4898,-5.5212,0,-5.3523,-5.363,-5.375,-5.3805,-5.3859,-5.3998,-5.3942,-5.4006,-5.3947,-5.3924,-5.4082,-5.409,-5.4166,-5.4208,-5.4152,-5.4398,-5.4349,-5.4251,-5.4096,-5.4364,-5.4467,-5.4508,-5.3948,-5.3943,-5.3938,-5.3935,0,0,-5.3153,-5.3306,-5.323,-5.3355,-5.3397,-5.3264,-5.3418,-5.3443,-5.3497,-5.3528,-5.344,-5.3621,-5.3633,-5.383,-5.391,-5.394,-5.3979,-5.3888,-5.4236,-5.427,-5.4302,-5.4412,-5.4456,-5.3928,-5.3926,-5.3925,-5.3923,0,-5.2975,-5.2989,-5.3142,-5.3163,-5.3193,-5.3161,-5.3198,-5.3205,-5.3197,-5.3352,-5.3242,-5.333,-5.3478,-5.3504,-5.3536,-5.3862,-5.3775,-5.3888,-5.4083,-5.4197,-5.4236,-5.4271,-5.4387,-5.443,-5.3913,-5.3914,-5.3914,0,-5.2656,-5.266,-5.2728,-5.2816,-5.2834,-5.2938,-5.2761,-5.2878,-5.2954,-5.2805,-5.2961,-5.2958,-5.2989,-5.3183,-5.3268,-5.3191,-5.3592,-5.3456,-5.348,-5.3489,-5.3597,-5.3644,-5.3687,-5.3132,-5.3129,-5.3127,0,0,-5.2509,-5.2608,-5.2591,-5.2773,-5.2792,-5.2748,-5.2797,-5.2744,-5.2774,-5.2787,-5.2783,-5.2816,-5.29,-5.2958,-5.3034,-5.3255,-5.3256,-5.3362,-5.3398,-5.3429,-5.3455,-5.3571,-5.3617,-5.3117,-5.3117,-5.3117,0,0,-5.244,-5.2426,-5.2362,-5.2567,-5.2599,-5.2594,-5.2707,-5.2629,-5.2692,-5.267,-5.2587,-5.2592,-5.2772,-5.2775,-5.2655,-5.2978,-5.2825,-5.2853,-5.2971,-5.3016,-5.3053,-5.3049,-5.2476,0,0,0,0,0,-5.223,-5.2427,-5.2369,-5.2395,-5.2506,-5.2626,-5.2639,-5.2575,-5.2468,-5.2559,-5.2542,-5.2445,-5.2692,-5.2584,-5.2611,-5.2747,-5.2996,-5.3017,-5.3038,-5.3241,-5.3289,-5.333,0,0,0,0,0,0,-5.2239,-5.2272,-5.2363,-5.2368,-5.2392,-5.2618,-5.2422,-5.241,-5.2456,-5.2436,-5.2452,-5.2446,-5.2393,-5.2566,-5.2591,-5.2722,-5.2467,-5.3004,-5.3022,-5.3039,-5.3257,-5.3297,-5.3331,0,0,0,0,0,-5.2247,-5.2272,-5.2467,-5.2365,-5.2386,-5.2347,-5.2414,-5.2403,-5.2437,-5.2413,-5.2404,-5.2384,-5.2399,-5.2416,-5.2581,-5.2712,-5.2449,-5.2459,-5.3016,-5.3031,-5.3043,-5.3277,0,0,0,0,0,0,-5.2252,-5.2263,-5.247,-5.2474,-5.2285,-5.2333,-5.2338,-5.2397,-5.241,-5.2403,-5.234,-5.2324,-5.2405,-5.2417,-5.2431,-5.2712,-5.2434,-5.2444,-5.245,-5.3027,-5.3038,-5.3048,0,0,0,0,0,0,-5.2248,-5.2267,-5.2472,-5.2376,-5.2368,-5.2321,-5.2325,-5.2456,-5.2412,-5.2336,-5.2323,-5.2333,-5.2384,-5.2419,-5.2429,-5.2636,-5.2423,-5.2432,-5.2439,-5.2443,-5.3036,-5.3045,0,0,0,0,0,0,-5.2255,-5.2271,-5.2374,-5.2369,-5.2361,-5.2401,-5.2434,-5.2552,-5.2329,-5.2338,-5.2307,-5.2297,-5.239,-5.2398,-5.2429,-5.2632,-5.2635,-5.2423,-5.243,-5.2434,-5.2437,0,0,0,0,0,0,0,-5.226,-5.2168,-5.2447,-5.2362,-5.2355,-5.2511,-5.2512,-5.2513,-5.2327,-5.2318,-5.2309,-5.2301,-5.2368,-5.2379,-5.2389,-5.2629,0,0,-5.2422,-5.2427,0,0,0,0,0,0,0,0,-5.2159,-5.2166,-5.2447,-5.2448,-5.2448,-5.2511,-5.2512,-5.2513,-5.2325,-5.2318,-5.2311,-5.2305,-5.2371,-5.238,-5.2388,0,0,0,0,0,0,0,0,0,0,0,0,0,0,0,-5.2447,-5.2448,0,-5.2511,-5.2512,-5.2512,-5.2324,-5.2318,-5.2313,-5.2307,-5.2373,-5.238,-5.2387,0,0,0,0,0,0,0,0,0,0,0,0,0,0,0,0,0,0,0,0,0,0,0,0,0,0,0,0,0,0,0,0,0,0,0,0,0,0,0,0,0,0,0,0,0,0,0,0,0,0,0,0,0,0,0,0,0,0,0,0,0,0,0,0,0,0,0,0,0]}],[{"header":{"parameterUnit":"kt","parameterCategory":2,"dx":1,"dy":1,"la1":30.253999710083008,"la2":30.299108505249023,"lo1":-89.0895004272461,"lo2":-89.04439544677734,"nx":28,"ny":28,"refTime":"2022-09-26T21:00:00:Z","depth":0,"parameterNumber":2,"parameterNumberName":"V-component_of_WINDS"},"data":[-15.7051,-15.7295,-15.7272,-15.7537,-15.756,-15.7734,-15.7788,-15.7854,-15.7899,-15.8101,-15.8211,-15.8207,-15.8237,-15.8358,-15.8472,-15.8465,-15.8515,-15.862,-15.8594,-15.8154,-15.8091,-15.803,-15.7972,-15.8632,-15.8633,-15.9053,-15.9057,-15.906,-15.6729,-15.6756,-15.6891,-15.7004,-15.7117,-15.7002,-15.708,-15.718,-15.7338,-15.7395,-15.7503,-15.7675,-15.7807,-15.78,-15.792,-15.8027,-15.7977,-15.8061,-15.8051,-15.8057,-15.7586,-15.7525,-15.81,-15.81,-15.81,-15.81,-15.81,-15.81,-15.6137,-15.6285,-15.634,-15.6484,-15.6533,-15.6608,-15.6742,-15.6735,-15.6862,-15.6989,-15.693,-15.7106,-15.7154,-15.7283,-15.7318,-15.7451,-15.7351,-15.7433,-15.7453,-15.7474,-15.7502,-15.6896,-15.7469,-15.7468,-15.7466,-15.7465,-15.7463,0,-15.5695,-15.5665,-15.5792,-15.5912,-15.6015,-15.6104,-15.618,-15.6262,-15.6182,-15.629,-15.6442,-15.6524,-15.6684,-15.6821,-15.6925,-15.6943,-15.6828,-15.6814,-15.687,-15.69,-15.6915,-15.6908,-15.6139,-15.6796,-15.6791,-15.6786,-15.6783,-15.6781,-15.5093,-15.5269,-15.5313,-15.5405,-15.5441,-15.559,-15.5672,-15.5589,-15.5679,-15.5757,-15.5888,-15.6025,-15.613,-15.6373,-15.6355,-15.6473,-15.6417,-15.6672,-15.6434,-15.6457,-15.6418,-15.6409,-15.6424,-15.6719,-15.6727,-15.6733,-15.6738,0,-15.4756,-15.4715,-15.4977,-15.5001,-15.5013,-15.5199,-15.5216,-15.5357,-15.5333,-15.5523,-15.5562,-15.5522,-15.567,-15.5611,-15.5767,-15.5731,-15.6029,-15.5972,-15.6011,-15.5996,-15.6216,-15.6196,-15.6944,-15.7036,-15.6354,-15.636,-15.6366,0,-15.4225,-15.4458,-15.4381,-15.4536,-15.479,-15.47,-15.4953,-15.4956,-15.4997,-15.5146,-15.5008,-15.5149,-15.5051,-15.5183,-15.513,-15.5363,-15.5392,-15.5377,-15.536,-15.5389,-15.5391,-15.5431,-15.5399,-15.5317,-15.5313,-15.5309,-15.5306,0,-15.3701,-15.3932,-15.4183,-15.4228,-15.4276,-15.4394,-15.4419,-15.4463,-15.4544,-15.4637,-15.4687,-15.4803,-15.4865,-15.4955,-15.4886,-15.4727,-15.517,-15.4936,-15.5153,-15.5156,-15.5253,-15.5248,-15.5927,-15.5302,-15.5301,-15.5299,-15.5298,0,-15.3263,-15.3367,-15.3738,-15.3773,-15.3836,-15.4001,-15.411,-15.4237,-15.4293,-15.4271,-15.4344,-15.4243,-15.4444,-15.4216,-15.4489,-15.4301,-15.437,-15.4374,-15.4388,-15.44,-15.4147,-15.4536,-15.5191,-15.5256,-15.4414,-15.4407,-15.44,0,-15.2674,-15.3037,-15.2963,-15.3317,-15.3476,-15.331,-15.349,-15.3545,-15.3531,-15.3659,-15.364,-15.3788,-15.3606,-15.3643,-15.3786,-15.3772,-15.4016,-15.3737,-15.3917,-15.3925,-15.3907,-15.451,-15.4621,-15.5055,-15.4305,-15.4315,-15.4322,0,-15.221,-15.2269,-15.2337,-15.2384,-15.2445,-15.2577,-15.2784,-15.2912,-15.3002,-15.3078,-15.3247,-15.3452,-15.3322,-15.3386,-15.3315,-15.3467,-15.3848,-15.3306,-15.3306,-15.3404,-15.4253,-15.4357,-15.4431,-15.3765,-15.3777,-15.3786,-15.4247,0,-15.1556,-15.1733,-15.1916,-15.2026,-15.2119,-15.2337,-15.2277,-15.2381,-15.2304,-15.2283,-15.2531,-15.2558,-15.2684,-15.2751,-15.2677,-15.3047,-15.2974,-15.2834,-15.2606,-15.3003,-15.3153,-15.3214,-15.2388,-15.2381,-15.2375,-15.237,0,0,-15.1001,-15.1252,-15.1163,-15.1363,-15.1436,-15.126,-15.1498,-15.1546,-15.165,-15.1702,-15.1575,-15.187,-15.1897,-15.2203,-15.2322,-15.2374,-15.2432,-15.2296,-15.2815,-15.2865,-15.2911,-15.3073,-15.3138,-15.2359,-15.2357,-15.2355,-15.2353,0,-15.0749,-15.0789,-15.1028,-15.1076,-15.1144,-15.1111,-15.1168,-15.1202,-15.12,-15.1443,-15.129,-15.143,-15.1669,-15.1717,-15.1772,-15.2259,-15.2133,-15.2302,-15.2584,-15.2757,-15.2815,-15.2866,-15.3037,-15.31,-15.2339,-15.234,-15.234,0,-15.0281,-15.0309,-15.0418,-15.0578,-15.0619,-15.0786,-15.0534,-15.0722,-15.0843,-15.0636,-15.0879,-15.0886,-15.0945,-15.1243,-15.1375,-15.1262,-15.1864,-15.1663,-15.1699,-15.1711,-15.1875,-15.1945,-15.2007,-15.1189,-15.1185,-15.1182,0,0,-15.0071,-15.0234,-15.0236,-15.0519,-15.0556,-15.051,-15.0592,-15.0524,-15.0584,-15.0609,-15.0614,-15.0675,-15.081,-15.0902,-15.1027,-15.1364,-15.1367,-15.1524,-15.1579,-15.1623,-15.166,-15.1836,-15.1905,-15.1168,-15.1167,-15.1167,0,0,-14.9968,-14.9983,-14.9896,-15.0218,-15.0282,-15.0299,-15.0472,-15.0364,-15.0471,-15.0439,-15.0328,-15.034,-15.0617,-15.0629,-15.0448,-15.0943,-15.072,-15.0761,-15.0926,-15.0993,-15.1047,-15.1037,-15.0189,0,0,0,0,0,-14.968,-14.9981,-14.9903,-14.9947,-15.0146,-15.0343,-15.0367,-15.0286,-15.0129,-15.0268,-15.0255,-15.0116,-15.0508,-15.0346,-15.0389,-15.0592,-15.0986,-15.1018,-15.1048,-15.1339,-15.1411,-15.1471,0,0,0,0,0,0,-14.9697,-14.9753,-14.9894,-14.9926,-14.9969,-15.0332,-15.0048,-15.0034,-15.0112,-15.0082,-15.0123,-15.0117,-15.0048,-15.0317,-15.0358,-15.0552,-15.0175,-15.0998,-15.1026,-15.105,-15.1364,-15.1422,-15.1472,0,0,0,0,0,-14.971,-14.9754,-15.0096,-14.9921,-14.9959,-14.9922,-15.0036,-15.0022,-15.008,-15.0061,-15.005,-15.0012,-15.0056,-15.0085,-15.0341,-15.0535,-15.0146,-15.0162,-15.1016,-15.1038,-15.1057,-15.1392,0,0,0,0,0,0,-14.972,-14.9741,-15.0101,-15.0109,-14.9801,-14.99,-14.9913,-15.0012,-15.0051,-15.0045,-14.9943,-14.9919,-15.0066,-15.0086,-15.0109,-15.0535,-15.0123,-15.0139,-15.0148,-15.1033,-15.1049,-15.1065,0,0,0,0,0,0,-14.9716,-14.975,-15.0105,-14.9959,-14.995,-14.988,-14.9892,-15.0097,-15.0054,-14.993,-14.9912,-14.9932,-15.0029,-15.0088,-15.0105,-15.0428,-15.0105,-15.012,-15.013,-15.0137,-15.1046,-15.106,0,0,0,0,0,0,-14.9729,-14.9757,-14.9956,-14.995,-14.9941,-15.0027,-15.0059,-15.0266,-14.9934,-14.9931,-14.9901,-14.9886,-15.0036,-15.0051,-15.0104,-15.0421,-15.0427,-15.0105,-15.0116,-15.0123,-15.0128,0,0,0,0,0,0,0,-14.9739,-14.957,-15.0053,-14.9942,-14.9933,-15.0187,-15.0189,-15.0191,-14.9931,-14.9918,-14.9905,-14.9893,-15.0018,-15.0035,-15.0052,-15.0415,0,0,-15.0104,-15.0111,0,0,0,0,0,0,0,0,-14.9556,-14.9566,-15.0053,-15.0055,-15.0057,-15.0187,-15.0189,-15.019,-14.9928,-14.9918,-14.9907,-14.9898,-15.0023,-15.0036,-15.005,0,0,0,0,0,0,0,0,0,0,0,0,0,0,0,-15.0053,-15.0055,0,-15.0187,-15.0189,-15.019,-14.9927,-14.9918,-14.991,-14.9901,-15.0026,-15.0037,-15.0049,0,0,0,0,0,0,0,0,0,0,0,0,0,0,0,0,0,0,0,0,0,0,0,0,0,0,0,0,0,0,0,0,0,0,0,0,0,0,0,0,0,0,0,0,0,0,0,0,0,0,0,0,0,0,0,0,0,0,0,0,0,0,0,0,0,0,0,0,0]}]]]